Regional Weather Roundup
Issued by NWS

Home | Current Version | Previous Version | Text Only | Print | Product List | Glossary Off
Versions: 1 2 3 4 5 6 7 8 9 10 11 12 13 14 15 16 17 18 19 20 21 22 23 24 25 26 27 28 29 30 31 32 33 34 35 36 37 38 39 40 41 42 43 44 45 46 47 48 49 50

000
ASUS43 KOAX 240602
RWRNE

WEATHER ROUNDUP FOR NEBRASKA
NATIONAL WEATHER SERVICE OMAHA NE
100 AM CDT FRI OCT 24 2014

NOTES: SATELLITE DATA IS BEING USED TO AUGMENT CLOUD COVER ABOVE
       12000 FEET.
       "FAIR" INDICATES FEW OR NO CLOUDS BELOW 12,000 FEET WITH NO
       SIGNIFICANT WEATHER AND/OR OBSTRUCTIONS TO VISIBILITY.

  * THESE STATIONS DO NOT REPORT WEATHER SUCH AS RAIN...SNOW OR FOG.

NEZ001>004-019>022-054>056-240700-
NEBRASKA PANHANDLE

CITY           SKY/WX    TMP DP  RH WIND       PRES   REMARKS
SCOTTSBLUFF    MOCLDY    45  36  70 E5        30.02S
6HR MIN TEMP:  44; 6HR MAX TEMP:  64;

ALLIANCE       CLEAR     43  33  68 W6        30.00S
6HR MIN TEMP:  42; 6HR MAX TEMP:  62;

CHADRON        PTCLDY    41  34  76 CALM      29.95R
6HR MIN TEMP:  41; 6HR MAX TEMP:  62;

KIMBALL        PTCLDY    47  34  61 W6        30.07F
SIDNEY         PTCLDY    46  34  62 W9        30.05F
6HR MIN TEMP:  44; 6HR MAX TEMP:  59;

$$

NEZ057>060-069>072-079>082-240700-
SOUTHWEST NEBRASKA

CITY           SKY/WX    TMP DP  RH WIND       PRES   REMARKS
NORTH PLATTE   CLEAR     52  49  89 W6        29.99S
6HR MIN TEMP:  52; 6HR MAX TEMP:  65;

IMPERIAL       MOCLDY    52  41  66 SW7       30.02F
6HR MIN TEMP:  52; 6HR MAX TEMP:  69;

LEXINGTON      PTCLDY    60  56  87 SW9       29.99F
MCCOOK         CLEAR     57  54  89 SW5       30.02S FOG
6HR MIN TEMP:  56; 6HR MAX TEMP:  67;

OGALLALA       PTCLDY    43  37  78 W6        30.00F
$$

NEZ005>010-023>029-035>040-094-240700-
NORTH CENTRAL NEBRASKA

CITY           SKY/WX    TMP DP  RH WIND       PRES   REMARKS
VALENTINE      PTCLDY    44  37  76 SW8       29.92R
6HR MIN TEMP:  43; 6HR MAX TEMP:  62;

AINSWORTH      PTCLDY    54  43  67 SW9       29.92R
BROKEN BOW     PTCLDY    56  53  90 SW3       29.96F
6HR MIN TEMP:  53; 6HR MAX TEMP:  63;

O`NEILL        PTCLDY    55  53  93 SW6       29.91F
ORD            CLEAR     54  52  93 CALM      29.94F
6HR MIN TEMP:  54; 6HR MAX TEMP:  62;

THEDFORD       MOCLDY    56  43  60 SW5       29.96S
$$

NEZ041-046>049-061>064-073>077-083>087-240700-
SOUTH CENTRAL NEBRASKA

CITY           SKY/WX    TMP DP  RH WIND       PRES   REMARKS
GRAND ISLAND   CLEAR     59  56  89 S13       29.99S
6HR MIN TEMP:  57; 6HR MAX TEMP:  60;

AURORA         CLEAR     58  57  96 S10       29.99S
HASTINGS       CLEAR     57  54  89 S8        30.00S
6HR MIN TEMP:  54; 6HR MAX TEMP:  57;

HEBRON         CLEAR     60  56  88 S7        30.01F
HOLDREGE       PTCLDY    54  53  95 CALM      30.01S FOG
KEARNEY *      CLEAR     54  52  94 S8        30.00F
YORK           PTCLDY    55  55 100 S7        29.99F
$$

NEZ011>018-030>034-042>045-240700-
NORTHEAST NEBRASKA

CITY           SKY/WX    TMP DP  RH WIND       PRES   REMARKS
NORFOLK        CLEAR     59  54  83 S13       29.94F
6HR MIN TEMP:  53; 6HR MAX TEMP:  60;

ALBION         CLEAR     54  51  92 SE3       29.96S FOG
BLAIR          MOCLDY    55  48  79 S6        29.99F
COLUMBUS *     PTCLDY    52  46  82 CALM      29.99S
FREMONT        MOCLDY    57  49  75 SE5       29.99S
TEKAMAH        PTCLDY    50  47  89 SE7       29.98F
6HR MIN TEMP:  49; 6HR MAX TEMP:  60;

WAYNE          PTCLDY    53  49  83 SW3       29.95F
$$

NEZ050>053-065>068-078-088>093-240700-
SOUTHEAST NEBRASKA

CITY           SKY/WX    TMP DP  RH WIND       PRES   REMARKS
LINCOLN        PTCLDY    53  49  86 S7        30.01F
6HR MIN TEMP:  52; 6HR MAX TEMP:  66;

OMAHA EPPLEY   MOCLDY    55  49  80 SE9       30.00F
6HR MIN TEMP:  55; 6HR MAX TEMP:  67;

BEATRICE       MOCLDY    58  56  92 S7        30.02F
FALLS CITY     MOCLDY    60  58  92 S12       30.04R
6HR MIN TEMP:  60; 6HR MAX TEMP:  67;

NEBRASKA CITY  MOCLDY    56  56  97 SW9       30.02S
PLATTSMOUTH    MOCLDY    56  52  85 S6        30.01S
$$

NEZ044-045-051>053-067-240700-
OMAHA AREA

CITY           SKY/WX    TMP DP  RH WIND       PRES   REMARKS
OMAHA EPPLEY   MOCLDY    55  49  80 SE9       30.00F
6HR MIN TEMP:  55; 6HR MAX TEMP:  67;

BLAIR          MOCLDY    55  48  79 S6        29.99F
FREMONT        MOCLDY    57  49  75 SE5       29.99S
OFFUTT AFB     MOCLDY    51  51 100 E3        30.00F
PLATTSMOUTH    MOCLDY    56  52  85 S6        30.01S
WAHOO          FAIR      51  47  86 S3        29.99S
$$



USA.gov is the U.S. government's official web portal to all federal, state and local government web resources and services.